�������l�o���
Date,Time,MP-1(��Sv/h),MP-2(��Sv/h),MP-3(��Sv/h),MP-4(��Sv/h),MP-5(��Sv/h),MP-6(��Sv/h),MP-7(��Sv/h),MP-8(��Sv/h),����,����(m/s),���J
2019/12/29,00:00,0.696,1.004,0.674,1.263,0.879,0.400,0.705,0.670,��,3.8,��
2019/12/29,00:10,0.696,1.002,0.675,1.262,0.881,0.400,0.706,0.670,���k��,3.8,��
2019/12/29,00:20,0.693,1.003,0.675,1.261,0.880,0.400,0.706,0.671,���k��,3.6,��
2019/12/29,00:30,0.697,1.002,0.675,1.261,0.881,0.400,0.705,0.670,���k��,2.6,��
2019/12/29,00:40,0.696,1.002,0.675,1.262,0.880,0.401,0.704,0.671,�k��,1.8,��
2019/12/29,00:50,0.694,1.003,0.676,1.262,0.882,0.399,0.704,0.671,���k��,1.2,��
2019/12/29,01:00,0.697,1.002,0.674,1.262,0.882,0.400,0.705,0.670,���k��,1.3,��
2019/12/29,01:10,0.698,1.003,0.676,1.261,0.881,0.400,0.705,0.670,���쐼,0.9,��
2019/12/29,01:20,0.696,1.004,0.675,1.262,0.884,0.401,0.705,0.671,���쐼,1.1,��
2019/12/29,01:30,0.697,1.003,0.673,1.262,0.882,0.401,0.705,0.669,��,2.3,��
2019/12/29,01:40,0.698,1.001,0.676,1.259,0.878,0.401,0.705,0.670,���쐼,2.6,��
2019/12/29,01:50,0.696,1.004,0.675,1.260,0.881,0.400,0.707,0.671,���쐼,3.5,��
2019/12/29,02:00,0.696,1.003,0.675,1.262,0.882,0.400,0.704,0.671,���쐼,3.0,��
2019/12/29,02:10,0.696,1.002,0.676,1.261,0.881,0.401,0.704,0.672,���쐼,2.7,��
2019/12/29,02:20,0.696,1.001,0.677,1.262,0.879,0.401,0.705,0.672,���쐼,3.1,��
2019/12/29,02:30,0.697,1.001,0.675,1.262,0.880,0.401,0.704,0.670,���쐼,3.2,��
2019/12/29,02:40,0.697,1.004,0.676,1.259,0.881,0.400,0.706,0.671,�쐼,3.5,��
2019/12/29,02:50,0.696,1.003,0.674,1.261,0.880,0.402,0.706,0.670,�쐼,3.2,��
2019/12/29,03:00,0.693,1.002,0.675,1.260,0.880,0.400,0.704,0.672,��쐼,3.0,��
2019/12/29,03:10,0.695,1.002,0.673,1.262,0.880,0.400,0.705,0.671,��쐼,2.7,��
2019/12/29,03:20,0.696,1.001,0.677,1.263,0.881,0.399,0.705,0.671,���쐼,2.2,��
2019/12/29,03:30,0.694,1.003,0.674,1.258,0.879,0.399,0.706,0.671,�쐼,2.1,��
2019/12/29,03:40,0.696,1.002,0.675,1.261,0.879,0.400,0.707,0.671,��,2.4,��
2019/12/29,03:50,0.696,1.003,0.674,1.263,0.879,0.401,0.705,0.670,���쐼,2.4,��
2019/12/29,04:00,0.695,1.003,0.676,1.259,0.880,0.400,0.704,0.672,�쐼,3.3,��
2019/12/29,04:10,0.695,1.001,0.676,1.260,0.881,0.401,0.706,0.670,���쐼,4.1,��
2019/12/29,04:20,0.696,1.002,0.676,1.259,0.882,0.400,0.704,0.670,���쐼,4.5,��
2019/12/29,04:30,0.696,1.002,0.674,1.262,0.878,0.399,0.704,0.672,���쐼,4.9,��
2019/12/29,04:40,0.695,1.001,0.675,1.262,0.878,0.400,0.704,0.669,���쐼,5.0,��
2019/12/29,04:50,0.696,1.001,0.674,1.261,0.879,0.400,0.704,0.670,���쐼,4.7,��
2019/12/29,05:00,0.696,1.001,0.674,1.261,0.878,0.401,0.706,0.671,���쐼,5.2,��
2019/12/29,05:10,0.695,0.999,0.675,1.261,0.879,0.401,0.705,0.671,��,4.7,��
2019/12/29,05:20,0.695,1.002,0.673,1.262,0.880,0.400,0.705,0.670,���쐼,4.7,��
2019/12/29,05:30,0.693,1.001,0.675,1.261,0.879,0.400,0.706,0.670,��,4.3,��
2019/12/29,05:40,0.694,1.000,0.676,1.259,0.876,0.399,0.704,0.671,��,4.3,��
2019/12/29,05:50,0.693,1.002,0.675,1.259,0.878,0.399,0.704,0.672,��,4.9,��
2019/12/29,06:00,0.694,0.999,0.673,1.261,0.880,0.401,0.706,0.669,���k��,5.5,��
2019/12/29,06:10,0.694,1.000,0.673,1.262,0.878,0.398,0.704,0.671,���k��,5.2,��
2019/12/29,06:20,0.693,1.000,0.674,1.259,0.877,0.399,0.705,0.672,�k��,5.2,��
2019/12/29,06:30,0.695,1.001,0.673,1.260,0.878,0.399,0.704,0.670,�k��,4.9,��
2019/12/29,06:40,0.694,1.000,0.674,1.259,0.877,0.399,0.703,0.670,���k��,4.9,��
2019/12/29,06:50,0.694,1.000,0.674,1.262,0.878,0.399,0.705,0.671,��,3.4,��
2019/12/29,07:00,0.695,1.000,0.675,1.263,0.879,0.400,0.705,0.670,��,3.1,��
2019/12/29,07:10,0.695,1.001,0.675,1.261,0.878,0.399,0.705,0.672,���k��,3.1,��
2019/12/29,07:20,0.694,1.001,0.674,1.259,0.878,0.398,0.704,0.671,���k��,2.1,��
2019/12/29,07:30,0.694,1.000,0.675,1.262,0.880,0.399,0.705,0.671,��,2.1,��
2019/12/29,07:40,0.695,1.002,0.674,1.260,0.878,0.399,0.703,0.671,���k��,3.0,��
2019/12/29,07:50,0.694,1.003,0.675,1.261,0.878,0.398,0.705,0.671,��,4.2,��
2019/12/29,08:00,0.695,1.002,0.673,1.262,0.879,0.399,0.705,0.669,���k��,4.1,��
2019/12/29,08:10,0.694,1.002,0.674,1.261,0.878,0.399,0.706,0.670,���k��,3.1,��
2019/12/29,08:20,0.694,1.002,0.674,1.260,0.878,0.400,0.706,0.672,��,2.9,��
2019/12/29,08:30,0.696,1.001,0.673,1.261,0.878,0.400,0.705,0.672,��,2.7,��
2019/12/29,08:40,0.697,1.002,0.676,1.261,0.880,0.400,0.706,0.671,��,3.2,��
2019/12/29,08:50,0.695,1.001,0.676,1.260,0.877,0.400,0.705,0.672,���k��,5.3,��
2019/12/29,09:00,0.698,1.003,0.675,1.261,0.878,0.401,0.705,0.672,���k��,5.0,��
2019/12/29,09:10,0.697,1.003,0.677,1.261,0.879,0.400,0.705,0.671,���k��,4.6,��
2019/12/29,09:20,0.697,1.004,0.677,1.263,0.881,0.400,0.707,0.672,���k��,4.4,��
2019/12/29,09:30,0.698,1.004,0.677,1.264,0.878,0.400,0.706,0.671,���k��,4.2,��
2019/12/29,09:40,0.698,1.006,0.674,1.264,0.880,0.400,0.706,0.673,���k��,2.8,��
2019/12/29,09:50,0.699,1.002,0.676,1.264,0.881,0.402,0.707,0.673,�k��,3.8,��
2019/12/29,10:00,0.698,1.006,0.676,1.259,0.881,0.401,0.706,0.673,���k��,3.6,��
2019/12/29,10:10,0.698,1.005,0.676,1.262,0.881,0.401,0.706,0.672,�k��,2.5,��
2019/12/29,10:20,0.696,1.002,0.676,1.261,0.879,0.402,0.706,0.672,�k��,2.2,��
2019/12/29,10:30,0.698,1.003,0.675,1.261,0.881,0.401,0.704,0.673,�k��,2.2,��
2019/12/29,10:40,0.698,1.004,0.677,1.261,0.880,0.401,0.705,0.672,�k��,1.2,��
2019/12/29,10:50,0.698,1.002,0.676,1.261,0.883,0.402,0.706,0.673,�k��,2.1,��
2019/12/29,11:00,0.699,1.003,0.678,1.263,0.885,0.403,0.707,0.673,�k��,1.9,��
2019/12/29,11:10,0.699,1.003,0.677,1.263,0.884,0.401,0.706,0.672,��,2.5,��
2019/12/29,11:20,0.699,1.003,0.678,1.262,0.883,0.401,0.705,0.674,�k��,2.7,��
2019/12/29,11:30,0.700,1.004,0.677,1.265,0.883,0.403,0.706,0.674,���쓌,2.2,��
2019/12/29,11:40,0.699,1.007,0.678,1.264,0.884,0.402,0.707,0.672,���쓌,2.3,��
2019/12/29,11:50,0.700,1.004,0.678,1.263,0.884,0.401,0.707,0.672,��,2.3,��
2019/12/29,12:00,0.701,1.004,0.677,1.260,0.885,0.402,0.706,0.672,���k��,2.4,��
2019/12/29,12:10,0.700,1.005,0.676,1.263,0.886,0.401,0.709,0.673,��,2.2,��
2019/12/29,12:20,0.703,1.004,0.678,1.265,0.884,0.402,0.707,0.673,���k��,2.5,��
2019/12/29,12:30,0.700,1.005,0.677,1.264,0.885,0.401,0.708,0.672,�k��,1.8,��
2019/12/29,12:40,0.702,1.007,0.679,1.265,0.884,0.403,0.708,0.674,���k��,2.5,��
2019/12/29,12:50,0.700,1.005,0.679,1.264,0.886,0.402,0.710,0.672,���k��,2.5,��
2019/12/29,13:00,0.699,1.007,0.677,1.262,0.887,0.403,0.709,0.672,���k��,2.5,��
2019/12/29,13:10,0.701,1.007,0.680,1.263,0.883,0.402,0.707,0.674,���k��,3.5,��
2019/12/29,13:20,0.700,1.006,0.678,1.264,0.886,0.402,0.709,0.673,���k��,2.4,��
2019/12/29,13:30,0.700,1.010,0.678,1.264,0.886,0.402,0.708,0.669,��,3.0,��
2019/12/29,13:40,0.701,1.006,0.678,1.264,0.886,0.403,0.709,0.668,���k��,1.8,��
2019/12/29,13:50,0.702,1.008,0.678,1.265,0.885,0.403,0.708,0.671,���쓌,2.0,��
2019/12/29,14:00,0.701,1.008,0.678,1.265,0.888,0.404,0.709,0.670,���쓌,2.4,��
2019/12/29,14:10,0.700,1.007,0.679,1.264,0.886,0.405,0.707,0.669,��,1.1,��
2019/12/29,14:20,0.701,1.006,0.677,1.263,0.889,0.403,0.708,0.671,���쓌,1.9,��
2019/12/29,14:30,0.703,1.010,0.679,1.266,0.887,0.404,0.709,0.671,���쓌,2.4,��
2019/12/29,14:40,0.702,1.010,0.679,1.265,0.884,0.403,0.708,0.673,�쓌,2.7,��
2019/12/29,14:50,0.699,1.011,0.678,1.264,0.887,0.402,0.708,0.672,���쓌,2.2,��
2019/12/29,15:00,0.702,1.012,0.679,1.263,0.888,0.403,0.709,0.673,���쓌,1.5,��
2019/12/29,15:10,0.703,1.010,0.678,1.264,0.887,0.403,0.708,0.672,�쓌,1.9,��
2019/12/29,15:20,0.701,1.012,0.679,1.266,0.886,0.404,0.709,0.672,��쓌,1.9,��
2019/12/29,15:30,0.700,1.010,0.679,1.264,0.887,0.403,0.707,0.671,��쓌,1.7,��
2019/12/29,15:40,0.699,1.008,0.679,1.265,0.887,0.403,0.708,0.673,�쓌,1.9,��
2019/12/29,15:50,0.700,1.011,0.678,1.262,0.888,0.402,0.709,0.672,��쓌,2.0,��
2019/12/29,16:00,0.701,1.011,0.678,1.263,0.888,0.403,0.708,0.671,��쓌,1.7,��
2019/12/29,16:10,0.702,1.011,0.680,1.263,0.885,0.403,0.708,0.673,��쓌,2.3,��
2019/12/29,16:20,0.699,1.011,0.677,1.264,0.888,0.402,0.708,0.672,��,2.7,��
2019/12/29,16:30,0.701,1.011,0.678,1.265,0.888,0.403,0.707,0.673,��,3.3,��
2019/12/29,16:40,0.701,1.011,0.678,1.264,0.885,0.403,0.707,0.672,��,2.7,��
2019/12/29,16:50,0.700,1.008,0.677,1.264,0.887,0.403,0.707,0.672,��,0.5,��
2019/12/29,17:00,0.697,1.009,0.679,1.265,0.886,0.403,0.706,0.671,��,1.7,��
2019/12/29,17:10,0.701,1.012,0.679,1.262,0.885,0.402,0.706,0.673,��쐼,0.7,��
2019/12/29,17:20,0.698,1.010,0.677,1.263,0.888,0.401,0.707,0.672,��,2.7,��
2019/12/29,17:30,0.700,1.011,0.677,1.262,0.886,0.402,0.706,0.670,��,2.7,��
2019/12/29,17:40,0.700,1.009,0.678,1.264,0.885,0.403,0.707,0.674,��,3.0,��
2019/12/29,17:50,0.699,1.009,0.678,1.267,0.886,0.403,0.707,0.673,��,3.0,��
2019/12/29,18:00,0.700,1.009,0.677,1.262,0.886,0.402,0.705,0.672,��쐼,3.8,��
2019/12/29,18:10,0.700,1.011,0.678,1.267,0.886,0.402,0.705,0.671,��쐼,3.5,��
2019/12/29,18:20,0.699,1.010,0.679,1.267,0.888,0.401,0.707,0.671,�쐼,2.2,��
2019/12/29,18:30,0.699,1.009,0.676,1.265,0.885,0.402,0.706,0.672,��쐼,2.9,��
2019/12/29,18:40,0.700,1.009,0.677,1.264,0.885,0.402,0.706,0.673,��쐼,2.9,��
2019/12/29,18:50,0.699,1.008,0.678,1.264,0.886,0.403,0.706,0.671,��쐼,2.6,��
2019/12/29,19:00,0.697,1.008,0.677,1.266,0.884,0.402,0.705,0.671,��쐼,2.7,��
2019/12/29,19:10,0.699,1.008,0.679,1.263,0.886,0.402,0.704,0.671,�쐼,2.7,��
2019/12/29,19:20,0.699,1.008,0.676,1.267,0.884,0.401,0.705,0.672,�쐼,2.6,��
2019/12/29,19:30,0.698,1.008,0.676,1.263,0.886,0.402,0.708,0.671,��쐼,2.5,��
2019/12/29,19:40,0.701,1.006,0.679,1.263,0.885,0.402,0.706,0.671,��쐼,2.8,��
2019/12/29,19:50,0.698,1.008,0.676,1.264,0.887,0.403,0.707,0.673,��쐼,2.9,��
2019/12/29,20:00,0.698,1.007,0.677,1.261,0.886,0.402,0.707,0.672,��쐼,2.9,��
2019/12/29,20:10,0.699,1.007,0.679,1.264,0.886,0.401,0.704,0.670,��쐼,2.6,��
2019/12/29,20:20,0.699,1.007,0.678,1.265,0.885,0.401,0.704,0.673,��쐼,3.2,��
2019/12/29,20:30,0.699,1.008,0.677,1.266,0.885,0.402,0.707,0.672,��,3.8,��
2019/12/29,20:40,0.702,1.010,0.677,1.263,0.886,0.401,0.706,0.671,��,4.0,��
2019/12/29,20:50,0.699,1.008,0.677,1.262,0.885,0.401,0.705,0.673,��,4.0,��
2019/12/29,21:00,0.698,1.007,0.676,1.263,0.886,0.401,0.707,0.673,��쐼,2.9,��
2019/12/29,21:10,0.698,1.008,0.679,1.263,0.885,0.401,0.706,0.673,��쐼,3.2,��
2019/12/29,21:20,0.700,1.008,0.678,1.264,0.886,0.402,0.705,0.672,��쐼,2.8,��
2019/12/29,21:30,0.698,1.009,0.677,1.264,0.885,0.402,0.705,0.670,��쐼,2.5,��
2019/12/29,21:40,0.699,1.007,0.677,1.263,0.885,0.402,0.706,0.670,��쐼,2.0,��
2019/12/29,21:50,0.698,1.005,0.679,1.262,0.885,0.401,0.706,0.671,��쐼,1.7,��
2019/12/29,22:00,0.699,1.007,0.677,1.266,0.885,0.402,0.707,0.673,��,1.6,��
2019/12/29,22:10,0.697,1.007,0.676,1.265,0.885,0.400,0.706,0.673,��,1.9,��
2019/12/29,22:20,0.700,1.005,0.677,1.265,0.885,0.400,0.707,0.673,-,CALM,��
2019/12/29,22:30,0.699,1.010,0.678,1.264,0.885,0.402,0.706,0.671,-,CALM,��
2019/12/29,22:40,0.697,1.006,0.677,1.264,0.884,0.401,0.708,0.671,-,CALM,��
2019/12/29,22:50,0.699,1.008,0.679,1.264,0.884,0.401,0.705,0.673,-,CALM,��
2019/12/29,23:00,0.699,1.009,0.676,1.263,0.886,0.400,0.705,0.671,-,CALM,��
2019/12/29,23:10,0.698,1.007,0.677,1.266,0.885,0.402,0.706,0.671,-,CALM,��
2019/12/29,23:20,0.701,1.007,0.678,1.265,0.886,0.401,0.707,0.671,-,CALM,��
2019/12/29,23:30,0.697,1.008,0.677,1.264,0.886,0.402,0.706,0.671,-,CALM,��
2019/12/29,23:40,0.700,1.008,0.677,1.266,0.885,0.403,0.706,0.672,�k,0.9,��
2019/12/29,23:50,0.700,1.006,0.678,1.263,0.886,0.402,0.706,0.672,�k�k��,1.3,��
